Beaufort, SC

8:54 AM EST on February 10, 2016 (GMT -0500)
Beaufort Marine Corps Air Station

Weather History for KNBC - August, 2014

Change the Weather History Date:

Friday, August 22, 2014

  Actual Average Record
Temperature  
Mean Temperature 88 °F -  
Max Temperature 100 °F 88 °F 101 °F (1968)
Min Temperature 78 °F 72 °F 59 °F (1930)
Cooling Degree Days 24    
Growing Degree Days 38 (Base 50)    
Moisture  
Dew Point 75 °F    
Average Humidity 68    
Maximum Humidity 93    
Minimum Humidity 36    
Precipitation  
Precipitation 0.00 in - - ()
Sea Level Pressure  
Sea Level Pressure 30.00 in    
Wind  
Wind Speed 3 mph (WNW)    
Max Wind Speed 9 mph    
Max Gust Speed -    
Visibility 10 miles    
Events      
Averages and records for this station are not official NWS values.
T = Trace of Precipitation, MM = Missing Value Source: NWS Daily Summary

Daily Weather History Graph

Daily Weather History Graph

Search for Another Location

Airport or City:

Trip Planner

Search our weather history database for the weather conditions in past years. The results will help you decide how hot, cold, wet, or windy it might be!

Date:

Astronomy

Aug. 22, 2014 Rise Set
Actual Time 6:51 AM EDT 7:59 PM EDT
Civil Twilight 6:25 AM EDT 8:25 PM EDT
Nautical Twilight 5:55 AM EDT 8:55 PM EDT
Astronomical Twilight 5:24 AM EDT 9:26 PM EDT
Moon 4:16 AM EDT (8/22) 6:04 PM EDT (8/22)
Length of Visible Light 13h 59m
Length of Day
13h 08m
Waning Crescent, 8% of the Moon is Illuminated
Aug 22
Waning Crescent
Aug 25
New
Sep 2
First Quarter
Sep 8
Full
Sep 15
Last Quarter

Hourly Weather History & Observations

Time (EDT) Temp. Heat Index Dew Point Humidity Pressure Visibility Wind Dir Wind Speed Gust Speed Precip Events Conditions
12:56 AM 81.0 °F 88.6 °F 78.1 °F 91% 30.05 in 10.0 mi Calm Calm - N/A   Clear
1:56 AM 82.0 °F 91.6 °F 79.0 °F 90% 30.04 in 10.0 mi West 5.8 mph - N/A   Clear
2:56 AM 81.0 °F 88.6 °F 78.1 °F 91% 30.04 in 10.0 mi Calm Calm - N/A   Clear
3:56 AM 79.0 °F - 75.9 °F 90% 30.03 in 10.0 mi Calm Calm - N/A   Clear
4:56 AM 78.1 °F - 75.9 °F 93% 30.02 in 10.0 mi Calm Calm - N/A   Clear
5:56 AM 78.1 °F - 75.0 °F 90% 30.02 in 10.0 mi WNW 3.5 mph - N/A   Clear
6:56 AM 78.1 °F - 75.0 °F 90% 30.02 in 5.0 mi Calm Calm - N/A   Scattered Clouds
7:56 AM 80.1 °F 85.4 °F 75.9 °F 87% 30.03 in 6.0 mi Calm Calm - N/A   Scattered Clouds
8:56 AM 84.9 °F 93.3 °F 75.0 °F 72% 30.04 in 10.0 mi North 3.5 mph - N/A   Scattered Clouds
9:56 AM 89.1 °F 97.0 °F 73.0 °F 59% 30.05 in 10.0 mi North 4.6 mph - N/A   Scattered Clouds
10:56 AM 91.9 °F 99.5 °F 72.0 °F 52% 30.06 in 10.0 mi North 6.9 mph - N/A   Scattered Clouds
11:56 AM 95.0 °F 103.2 °F 72.0 °F 47% 30.04 in 10.0 mi North 6.9 mph - N/A   Scattered Clouds
12:56 PM 97.0 °F 107.0 °F 73.0 °F 46% 30.03 in 10.0 mi Variable 4.6 mph - N/A   Mostly Cloudy
1:56 PM 98.1 °F 106.5 °F 71.1 °F 42% 30.02 in 10.0 mi North 9.2 mph - N/A   Mostly Cloudy
2:56 PM 99.0 °F 106.2 °F 70.0 °F 39% 30.00 in 10.0 mi Calm Calm - N/A   Mostly Cloudy
3:56 PM 97.0 °F 102.2 °F 68.0 °F 39% 29.97 in 10.0 mi WNW 3.5 mph - N/A   Mostly Cloudy
4:56 PM 99.0 °F 104.2 °F 68.0 °F 36% 29.96 in 10.0 mi North 8.1 mph - N/A   Mostly Cloudy
5:56 PM 96.1 °F 103.5 °F 71.1 °F 44% 29.94 in 10.0 mi WNW 8.1 mph - N/A   Clear
6:56 PM 93.9 °F 103.4 °F 73.0 °F 51% 29.94 in 10.0 mi WSW 6.9 mph - N/A   Clear
7:56 PM 90.0 °F 104.5 °F 78.1 °F 68% 29.96 in 10.0 mi SW 3.5 mph - N/A   Clear
8:56 PM 87.1 °F 99.8 °F 78.1 °F 74% 29.96 in 10.0 mi Variable 4.6 mph - N/A   Clear
9:56 PM 86.0 °F 96.9 °F 77.0 °F 74% 29.96 in 10.0 mi WSW 5.8 mph - N/A   Clear
10:56 PM 84.9 °F 96.6 °F 78.1 °F 80% 29.96 in 10.0 mi WSW 6.9 mph - N/A   Clear
11:56 PM 84.0 °F 94.8 °F 78.1 °F 82% 29.96 in 10.0 mi WSW 5.8 mph - N/A   Clear